星链-5706 (STARLINK-5706 )

导读 | 豆包AI

STARLINK-5706是美国太空探索技术公司(SpaceX)于2023年2月2日发射的星链(Starlink)低轨通信卫星,属于星链星座的组网卫星。星链计划旨在构建全球低轨宽带互联网星座,为全球偏远地区、海上等传统通信覆盖薄弱区域提供高速低延迟网络服务。STARLINK-5706采用平板设计,配备氪工质霍尔推进器,具备自主避撞能力,服役寿命约5-7年,退役后会主动离轨再入大气层烧毁。

Basic Information
目录编号:
55488
目录名称:
STARLINK-5706
国际标识:
2023-015AR
轨道中心:
EARTH
卫星名称:
星链-5706
卫星全名:
星链-5706 (STARLINK-5706 )
卫星状态:
在轨 (已飞行1183 天)
发射日期:
2023-02-02 UTC
国别 :
美国 (US)
星等 :
--
Orbit Information
数据来源 国际轨道数据 AOE轨道数据
星历时间 2026-04-30T09:44:23+0800
11小时前
查看轨道信息
2026-04-30T17:00:00+0800
4小时前
查看轨道信息
半长轴 6861.164km 6861.14km
偏心率 0.0001359 0.0001493
轨道倾角 43.004° 43.011°
近地点辐角 258.508° 293.026°
升交点赤经 49.537° 47.830°
平近点角 101.562° 292.577°
近地点 482.094km 481.978km
远地点 483.96km 484.028km
周期 94.266分钟 94.266分钟
每日圈数 15.275877 15.275954
Detailed Information
固有亮度:
5
最大亮度:
2.5
卫星平台:
Starlink v1.5
覆盖范围:
全球
运营商:
太空探索技术公司
运营商所在国:
美国
制造商(研发单位):
太空探索技术公司
制造商所在国:
美国
使用方式:
暂无
Satellite Introduction
星链(Starlink)计划是由太空探索技术公司(SpaceX)提出的一个巨型低轨卫星互联网星座项目,计划在2019年至2024年间在太空搭建由约1.2万颗卫星组成的“星链”网络,其中1584颗将部署在地球上空550千米处的近地轨道,并从2020年开始工作。该卫星仍在工作。
2D Orbit Map
3D Orbit Map
Orbit Altitude Analysis Chart
Orbit Inclination Analysis Chart
Orbit Comprehensive Analysis Chart
View Comprehensive Chart